4285 Weather Reports


time (UTC)temp
F
wind
direction
speed
knots
gust
knots
rain 1hr
in
rain 24hr
in
rain mn
in
humidity
%
barometer
mb
20260509010157 58 264 0.0 0.9 0.00 0.00 0.00 56 1006.0
20260508234502 64 243 0.0 5.2 0.00 0.00 0.00 39 1005.6
20260508231503 63 302 0.9 7.8 0.00 0.00 0.00 34 1005.6
20260508230002 63 300 0.9 9.6 0.00 0.00 0.00 35 1005.6
20260508221507 65 70 1.7 7.0 0.00 0.00 0.00 36 1005.8
20260508220003 64 309 2.6 7.0 0.00 0.00 0.00 34 1006.0
20260508204507 63 200 3.5 10.4 0.00 0.00 0.00 32 1006.4
20260508203017 64 287 2.6 8.7 0.00 0.00 0.00 34 1006.5
20260508194509 63 277 3.5 8.7 0.00 0.00 0.00 34 1007.2
20260508193142 63 53 1.7 12.2 0.00 0.00 0.00 35 1007.6
20260508190002 62 307 2.6 7.8 0.00 0.00 0.00 34 1008.1
20260508184502 62 291 0.9 8.7 0.00 0.00 0.00 34 1008.3
20260508171657 60 165 0.9 4.3 0.00 0.00 0.00 39 1009.6
20260508170157 59 93 0.9 6.1 0.00 0.00 0.00 38 1009.8
20260508160004 56 255 2.6 7.0 0.00 0.00 0.00 44 1010.6
20260508154656 55 338 1.7 7.0 0.00 0.00 0.00 44 1010.6
20260508153154 55 39 0.9 7.0 0.00 0.00 0.00 44 1010.7
20260508150004 53 269 0.0 4.3 0.00 0.00 0.00 50 1010.9
20260508133014 47 231 0.0 1.7 0.00 0.00 0.00 71 1011.4
20260508130155 44 205 0.0 0.0 0.00 0.00 0.00 78 1011.4
20260508080002 42 286 0.0 0.0 0.00 0.00 0.00 83 1010.7
20260508061658 40 294 0.0 0.0 0.00 0.00 0.00 88 1010.7
20260508060146 40 294 0.0 0.0 0.00 0.00 0.00 87 1010.9
20260508051508 41 294 0.0 0.0 0.00 0.00 0.00 82 1011.0
20260508050011 43 294 0.0 0.0 0.00 0.00 0.00 80 1010.9
20260508044515 44 294 0.0 1.7 0.00 0.00 0.00 78 1011.1
20260508033017 48 225 0.0 0.0 0.00 0.00 0.00 59 1010.6